www.pogodaiklimat.ru
Время
(UTC), дата
12 21.05
15 21.05
18 21.05
21 21.05
00 22.05
03 22.05
06 22.05
09 22.05
12 22.05
15 22.05
18 22.05
21 22.05
00 23.05
03 23.05
06 23.05
09 23.05
12 23.05
15 23.05
18 23.05
21 23.05
00 24.05
03 24.05
06 24.05
09 24.05
12 24.05
15 24.05
18 24.05
21 24.05
00 25.05
03 25.05
06 25.05
09 25.05
12 25.05
15 25.05
18 25.05
21 25.05
00 26.05
03 26.05
06 26.05
09 26.05
12 26.05
15 26.05
18 26.05
21 26.05
00 27.05
03 27.05
06 27.05
09 27.05
12 27.05
15 27.05
18 27.05
21 27.05
00 28.05
03 28.05
06 28.05
09 28.05
Ветер
(напр.,м/с)
Видим. Явления Облачность Т
(С)
Тd
(С)
f
(%)
Тe
(С)
Тes
(С)
Комфортность P
(гПа)
Po
(гПа)
Тmin
(С)
Tmax
(С)
R
(мм)
R24
(мм)
S
(см)
ЮВ 4
{16}
10 км {ливн. осадки} 8/8 600 м
[Cb cap Ac cuf]
+13.5 +3.9 52 +12 +13 прохладно 1008.5 996.5
ЮВ 3
{12}
10 км 8/8 600 м
[Cb cap Ac cuf]
+12.4 +4.3 58 +11 +11 по сезону 1008.7 996.5 +15.9 1
ЮВ 1 10 км {ливн. осадки} 6/6 600 м
[Cb cap]
+7.3 +5.4 88 +6 +6 прохладно 1009.0 996.7
ЮВ 2 10 км 4/0
[Ci fib]
+7.0 +5.6 91 +5 +5 по сезону 1009.3 997.0
ЮВ 3 10 км {ливн. осадки} 10/8 600 м
[Cb cap Ci fib]
+7.8 +7.1 95 +5 +5 по сезону 1009.1 996.9
ЮВ 4 10 км в посл. час ливневой дождь 9/5 600 м
[Cu Sc Ac trans Ci fib]
+10.2 +7.3 82 +8 +9 по сезону 1009.6 997.4 +7.0 0.3
Ю 6-11
{11}
10 км {ливн. осадки} 8/8 600 м
[Cu hum]
+15.4 +5.7 52 +14 +15 по сезону 1010.0 998.1
Ю 5-11
{11}
10 км 9/8 600 м
[Cu hum Ac trans]
+16.3 +4.9 47 +15 +16 по сезону 1011.8 999.9
ЮЗ 3
{11}
10 км 8/8 600 м
[Cu hum]
+17.5 +3.3 39 +18 +19 тепло 1013.1 1001.1
Ю 1 10 км 1/1 600 м
[Sc diur, vesp]
+17.3 +2.8 38 +18 +19 тепло 1014.3 1002.4 +18.8
ЮВ 1 10 км 1/0
[Ci fib]
+11.3 +4.0 61 +11 +11 по сезону 1015.2 1003.0
ЮВ 1 10 км 3/3 600 м
[Sc]
+10.0 +2.6 60 +10 +10 по сезону 1014.8 1002.5
ЮВ 1 10 км 9/3 600 м
[Sc Ci sp]
+9.5 +3.8 68 +9 +9 тепло 1014.3 1002.0
Ю 1 10 км 10/8 600 м
[Sc Ac As]
+12.3 +8.7 79 +12 +13 тепло 1014.6 1002.5 +8.3
ЮЗ 2 10 км {ливн. осадки} 6/0
[Ac cast]
+17.0 +12.1 73 +17 +25 тепло 1014.2 1002.3
ЮЗ 4 10 км 10/3 600 м
[Cu hum Ci sp]
+20.4 +8.2 45 +22 +27 комфорт 1015.0 1003.2
З 2 10 км 10/3 600 м
[Sc diur, vesp Ac As]
+20.2 +7.9 45 +22 +23 комфорт 1015.9 1004.0
З 1 10 км 10/0
[Ac As]
+18.0 +8.1 52 +19 +19 тепло 1017.8 1005.9 +21.6 2
штиль 0 10 км 8/0
[Ac trans Ci fib]
+14.0 +8.0 67 +14 +14 тепло 1019.5 1007.4
штиль 0 10 км 1/0
[Ci fib]
+8.4 +7.3 93 +7 +7 по сезону 1021.3 1008.9
штиль 0 10 км 9/0
[Ac As]
+10.1 +8.4 89 +9 +9 тепло 1023.0 1010.6
В 2 10 км {дождь} 10/0
[Ac As]
+16.7 +5.9 49 +17 +19 тепло 1022.2 1010.1 +8.1 0.0
В 4 10 км {дождь} 10/0
[Ac As]
+19.0 +6.6 44 +19 +22 тепло 1021.4 1009.4
ЮВ 5-10
{11}
10 км 10/0
[Ac trans Ci fib]
+21.6 +10.4 49 +23 +27 комфорт 1018.5 1006.7
В 2
{11}
10 км 10/0
[Ac trans Ci fib]
+24.1 +15.6 59 +27 +30 жарко 1017.7 1006.0
В 2 10 км 8/0
[Ac trans Ci fib]
+23.5 +17.9 71 +28 +28 душно 1016.6 1004.9 +25.2
З 1 10 км 8/0
[Ac cast]
+20.4 +18.5 89 +25 +25 комфорт 1017.6 1005.8
штиль 0 10 км 6/0
[Ac trans]
+17.6 +16.5 93 +18 +18 тепло 1018.8 1006.9
С 1 10 км 10/0
[Ac As]
+16.3 +13.7 85 +17 +17 тепло 1020.6 1008.6
С 2 10 км 10/0
[Ac lent Cs]
+17.2 +13.0 76 +18 +21 тепло 1021.6 1009.6 +15.8
В 3 10 км 10/0
[Ac trans Cs]
+22.3 +14.8 63 +26 +33 жарко 1020.9 1009.1
В 4 10 км 10/0
[Ac cast Cs]
+24.9 +16.9 61 +29 +34 душно 1018.9 1007.3
В 4 10 км 8/0
[Ac cast Cc]
+27.2 +18.8 60 +32 +35 очень
душно
1014.6 1003.1
ЮЗ 6-11
{13}
10 км гроза без осадков {ливн. осадки} 10/6 600 м
[Cb cap Ac cuf]
+26.0 +15.5 52 +29 +29 душно 1011.5 1000.0 +27.7 0.5
З 5
{18}
10 км {гроза, ливн. осадки} 1/1 600 м
[Sc]
+13.6 +7.1 65 +12 +12 по сезону 1018.0 1005.9
З 5-12
{15}
10 км ясно +10.9 +4.6 65 +8 +8 по сезону 1018.6 1006.3
З 6-11
{14}
10 км 9/9 600 м
[Sc]
+11.1 +5.8 70 +8 +8 по сезону 1019.6 1007.4
З 4-12
{15}
10 км 10/10 600 м
[Sc]
+12.4 +7.3 71 +11 +11 по сезону 1022.8 1010.6 +10.5
СЗ 4
{12}
10 км 9/9 600 м
[Cu Sc]
+13.9 +8.6 70 +13 +13 по сезону 1025.8 1013.6
З 5
{11}
10 км 9/9 1000 м
[Cu Sc]
+16.8 +8.4 58 +16 +17 тепло 1027.8 1015.6
С 2 10 км 9/9 1000 м
[Cu Sc]
+15.8 +7.6 58 +16 +16 по сезону 1029.5 1017.3
СЗ 2 10 км 3/3 600 м
[Sc diur, vesp]
+16.3 +7.0 54 +16 +17 тепло 1029.9 1017.8 +17.4
штиль 0 10 км ясно +8.7 +7.5 92 +8 +8 по сезону 1031.3 1018.8
СЗ 1 10 км ясно +6.4 +5.8 96 +5 +5 по сезону 1031.9 1019.3
штиль 0 10 км 1/0
[Ci sp]
+6.5 +6.2 98 +5 +6 по сезону 1032.7 1020.1
В 2 10 км 3/0
[Ci fib]
+15.4 +7.3 58 +15 +20 тепло 1032.5 1020.3 +5.6
З 1 10 км 1/0
[Ci fib]
+18.6 +4.4 39 +20 +35 опасность
простуды
1031.6 1019.5
ЮВ 2 10 км 3/0
[Ci fib]
+20.2 +6.4 41 +22 +35 комфорт 1029.8 1017.8
ЮВ 3 10 км 8/0
[Ci]
+21.0 +5.1 35 +22 +26 комфорт 1027.9 1015.9
В 2 10 км 9/0
[Ci]
+18.9 +8.0 49 +20 +20 тепло 1025.5 1013.5 +21.5
ЮВ 2 10 км 4/0
[Ci sp]
+15.1 +7.6 61 +15 +15 тепло 1024.1 1011.9
В 1 10 км в посл. час ливневой дождь {гроза} 9/0
[Ac cast]
+12.8 +9.0 78 +13 +13 тепло 1023.9 1011.7
Ю 3 10 км {гроза, ливн. осадки} 9/4 600 м
[Cb cap Ac cuf Ci sp]
+13.5 +8.3 71 +12 +12 тепло 1021.4 1009.2
Ю 4 10 км {ливн. осадки} 8/0
[Ac cast Ci fib]
+17.5 +9.9 61 +17 +20 тепло 1018.7 1006.7 +12.4 0.3
Ю 4 4000 м слаб. ливневой дождь 10/8 600 м
[Cb cap Ac As]
+19.1 +11.7 62 +20 +21 тепло 1015.7 1003.9
Ю 4
{10}
10 км {ливн. осадки} 6/0
[Ac trans Ci fib]
+23.9 +13.6 52 +26 +33 жарко 1014.3 1002.6
Местоположение метеостанции Тюмень (Тюменская область, Россия): широта 57.12 долгота 65.43 высота над уровнем моря 102 м.
В архиве по умолчанию представлена погода в Тюмени за последнюю неделю. Архивные данные за месяц целиком и за предыдущие месяцы, начиная с января 2011 года, Вы можете получить, выбрав интересующий диапазон дат из раскрывающегося списка и нажав кнопку "Найти!".
*Определитесь, кто Вы:
Внимание! Время в таблицах - всемирное. Для получения местного времени необходимо прибавить поправку, которая равна 5 ч.
Смотрите также архив погоды в соседних городах и на ближайших метеорологических станциях:
Партнеры нашего сайта:      
Пояснения к столбцам:
  • Ветер - указаны скорость ветра в м/с - средняя за 10 мин, порывы в срок и между сроками (в фигурных скобках) и направление, откуда дует ветер: С - северный,
  • СВ - северо-восточный, В - восточный, ЮВ - юго-восточный, Ю - южный, ЮЗ - юго-западный, З - западный, СЗ - северо-западный.
  • Видимость - горизонтальная дальность видимости в метрах или километрах. При видимости от 1 до 10 км при отсутствии осадков обычно наблюдается дымка, при ухудшении видимости до 1 км и менее - туман. В сухую погоду видимость может ухудшаться дымом, пылью или мглою.
  • Явления - указаны атмосферные явления, наблюдавшиеся в срок или в последний час перед сроком; фигурными скобками обозначены явления, наблюдавшиеся между сроками (за 1-3 часа до срока); квадратными скобками обозначены град или гололедные отложения с указанием их диаметра в мм.
  • Облачность - указаны через наклонную черту общая и нижняя облачность в баллах и высота нижней границы облаков в метрах; квадратными скобками обозначены формы облаков: Ci - перистые, Cs - перисто-слоистые, Cc - перисто-кучевые, Ac - высококучевые, As - высокослоистые, Sc - слоисто-кучевые, Ns - слоисто-дождевые, Cu - кучевые, Cb - кучево-дождевые. Подробнее классификацию облаков см. в Атласе облаков (PDF).
  • T - Температура воздуха - температура, измеренная на высоте 2 м над землей.
  • Td - Температура точки росы - температура, при понижении до которой содержащийся в воздухе водяной пар достигнет насыщения.
  • f - Относительная влажность воздуха - влажноcть воздуха, измеренная на высоте 2 м над землей.
  • Te - Эффективная температура - температура, которую ощущает одетый по сезону человек в тени. Характеристика душности погоды. При расчете учитывается влияние влажности воздуха и скорости ветра на теплоощущения человека.
  • Tes - Эффективная температура на солнце - температура, которую ощущает человек, с поправкой на солнечный нагрев. Характеристика знойности погоды. Зависит от высоты солнца над горизонтом, облачности и скорости ветра. Ночью, в пасмурную погоду, а также при ветре 12 м/с и более поправка равна нулю.
  • P - Атмосферное давление - приведенное к уровню моря атмосферное давление.
  • Po - Атмосферное давление - измеренное на уровне метеостанции атмосферное давление.
  • Tmin - Минимальная температура - минимум температуры воздуха на высоте 2 м над землей.
  • Tmax - Максимальная температура - максимум температуры воздуха на высоте 2 м над землей.
  • R - Количество осадков - Количество выпавших осадков за период времени, мм. При наведении курсора мыши на число - период времени, за который выпало указанное количество осадков.
  • R24 - Количество осадков - Количество выпавших осадков за 24 часа, мм.
  • S - Снежный покров - Высота снежного покрова, см. При наведении курсора мыши на число - состояние снежного покрова и степень покрытия местности в баллах.